Dumas, TX

4:13 AM CDT on October 01, 2016 (GMT -0500)
Moore County

Weather History for KDUX - October, 2013

Change the Weather History Date:

Friday, October 18, 2013

  Actual Average (KBGD) Record (KBGD)
Temperature  
Mean Temperature 39 °F 60 °F  
Max Temperature 50 °F 72 °F 91 °F (2005)
Min Temperature 28 °F 47 °F 31 °F (1996)
Degree Days  
Heating Degree Days 26 6  
Month to date heating degree days 82  
Since 1 July heating degree days 110  
Cooling Degree Days 0 1  
Month to date cooling degree days 42  
Year to date cooling degree days 1827  
Moisture  
Dew Point 33 °F    
Average Humidity 75    
Maximum Humidity 94    
Minimum Humidity 54    
Precipitation  
Precipitation 0.00 in 0.06 in 0.80 in (1971)
Month to date precipitation 1.14  
Year to date precipitation 19.53  
Snow  
Snow 0.00 in - 0.00 in (2013)
Month to date snowfall  
Since 1 July snowfall  
Since 1 September snowfall  
Snow Depth -    
Sea Level Pressure  
Sea Level Pressure 30.08 in    
Wind  
Wind Speed 13 mph (NNE)    
Max Wind Speed 23 mph    
Max Gust Speed 32 mph    
Visibility 10 miles    
Events      
T = Trace of Precipitation, MM = Missing Value Source: NWS Daily Summary

Daily Weather History Graph

Daily Weather History Graph

Search for Another Location

Airport or City:

Trip Planner

Search our weather history database for the weather conditions in past years. The results will help you decide how hot, cold, wet, or windy it might be!

Date:

Astronomy

Oct. 18, 2013 Rise Set
Actual Time 7:57 AM CDT 7:08 PM CDT
Civil Twilight 7:31 AM CDT 7:33 PM CDT
Nautical Twilight 7:01 AM CDT 8:03 PM CDT
Astronomical Twilight 6:32 AM CDT 8:33 PM CDT
Moon 7:00 PM CDT (10/18) 7:35 AM CDT (10/18)
Length of Visible Light 12h 02m
Length of Day
11h 10m
Full, 100% of the Moon is Illuminated
Oct 18
Full
Oct 18
Full
Oct 26
Last Quarter
Nov 3
New
Nov 9
First Quarter

Hourly Weather History & Observations

Time (CDT) Temp. Windchill Dew Point Humidity Pressure Visibility Wind Dir Wind Speed Gust Speed Precip Events Conditions
12:15 AM 50.0 °F - 33.8 °F 54% 29.97 in 10.0 mi East 12.7 mph - N/A   Mostly Cloudy
12:35 AM 49.1 °F - 34.0 °F 56% 29.97 in 10.0 mi East 11.5 mph - N/A   Scattered Clouds
12:55 AM 48.2 °F - 34.2 °F 58% 29.96 in 10.0 mi East 11.5 mph - N/A   Clear
1:15 AM 48.0 °F - 34.5 °F 60% 29.95 in 10.0 mi East 11.5 mph - N/A   Clear
1:35 AM 47.3 °F - 34.2 °F 60% 29.95 in 10.0 mi East 10.4 mph - N/A   Clear
1:55 AM 46.6 °F - 34.2 °F 62% 29.95 in 10.0 mi East 11.5 mph - N/A   Clear
2:15 AM 46.8 °F - 34.7 °F 63% 29.93 in 10.0 mi East 11.5 mph - N/A   Scattered Clouds
2:35 AM 48.6 °F - 35.8 °F 61% 29.93 in 10.0 mi East 12.7 mph - N/A   Overcast
2:55 AM 49.5 °F - 36.7 °F 61% 29.93 in 10.0 mi ESE 13.8 mph - N/A   Overcast
3:15 AM 49.5 °F - 37.4 °F 63% 29.92 in 10.0 mi East 15.0 mph - N/A   Overcast
3:35 AM 50.0 °F - 38.3 °F 64% 29.91 in 10.0 mi ESE 13.8 mph - N/A   Overcast
3:55 AM 50.0 °F - 38.8 °F 66% 29.91 in 10.0 mi ESE 11.5 mph 20.7 mph N/A   Overcast
4:15 AM 49.5 °F - 39.2 °F 68% 29.91 in 10.0 mi ESE 12.7 mph 18.4 mph N/A   Overcast
4:35 AM 48.9 °F - 39.2 °F 69% 29.90 in 10.0 mi ESE 11.5 mph - N/A   Overcast
4:55 AM 48.2 °F - 39.4 °F 72% 29.90 in 10.0 mi East 12.7 mph - N/A   Mostly Cloudy
5:15 AM 47.7 °F - 39.4 °F 73% 29.90 in 10.0 mi East 9.2 mph - N/A   Mostly Cloudy
5:35 AM 47.5 °F - 40.1 °F 76% 29.90 in 10.0 mi East 8.1 mph - N/A   Mostly Cloudy
5:55 AM 48.9 °F - 40.8 °F 74% 29.92 in 10.0 mi NE 4.6 mph - N/A   Overcast
6:15 AM 47.7 °F - 39.4 °F 73% 29.93 in 10.0 mi NNE 10.4 mph - N/A   Overcast
6:35 AM 46.6 °F - 35.6 °F 66% 29.93 in 10.0 mi NNE 11.5 mph - N/A   Overcast
6:55 AM 46.6 °F - 34.9 °F 64% 29.94 in 10.0 mi NNE 12.7 mph - N/A   Overcast
7:15 AM 44.4 °F 37.2 °F 32.7 °F 64% 29.95 in 10.0 mi NNE 16.1 mph 24.2 mph N/A   Overcast
7:35 AM 43.0 °F 35.1 °F 33.6 °F 70% 29.95 in 10.0 mi NNE 17.3 mph 21.9 mph N/A   Overcast
7:55 AM 41.7 °F 33.7 °F 34.9 °F 77% 29.97 in 10.0 mi NNE 16.1 mph 23.0 mph N/A   Overcast
8:15 AM 40.6 °F 30.9 °F 35.6 °F 82% 29.99 in 10.0 mi NNE 21.9 mph 26.5 mph N/A   Overcast
8:35 AM 40.5 °F 31.2 °F 35.8 °F 83% 30.00 in 10.0 mi NNE 19.6 mph 23.0 mph N/A   Overcast
8:55 AM 39.9 °F 30.8 °F 35.8 °F 85% 30.01 in 10.0 mi NNE 18.4 mph 26.5 mph N/A   Overcast
9:15 AM 39.6 °F 29.7 °F 35.8 °F 86% 30.02 in 10.0 mi NNE 20.7 mph 26.5 mph N/A   Overcast
9:35 AM 39.2 °F 30.5 °F 35.2 °F 86% 30.06 in 10.0 mi North 16.1 mph 27.6 mph N/A   Overcast
9:55 AM 38.7 °F 28.6 °F 33.6 °F 82% 30.07 in 10.0 mi North 20.7 mph 28.8 mph N/A   Overcast
10:15 AM 37.9 °F 27.6 °F 32.0 °F 79% 30.08 in 10.0 mi NNE 20.7 mph 26.5 mph N/A   Overcast
10:35 AM 37.6 °F 26.9 °F 32.0 °F 80% 30.09 in 10.0 mi NNE 21.9 mph 28.8 mph N/A   Overcast
10:55 AM 36.9 °F 25.6 °F 32.4 °F 84% 30.11 in 10.0 mi NNE 23.0 mph 32.2 mph N/A   Overcast
11:15 AM 36.3 °F 25.2 °F 33.3 °F 89% 30.12 in 10.0 mi NNE 21.9 mph 32.2 mph N/A   Overcast
11:35 AM 36.1 °F 25.0 °F 34.5 °F 94% 30.12 in 4.0 mi NNE 21.9 mph 26.5 mph N/A   Overcast
11:55 AM 35.1 °F 23.5 °F 33.3 °F 93% 30.14 in 4.0 mi NNE 21.9 mph 29.9 mph N/A   Overcast
12:15 PM 34.0 °F 23.4 °F 32.2 °F 93% 30.15 in 3.0 mi NNE 17.3 mph 27.6 mph N/A   Overcast
12:35 PM 34.9 °F 23.9 °F 33.1 °F 93% 30.15 in 4.0 mi NNE 19.6 mph 25.3 mph N/A   Overcast
12:55 PM 35.6 °F 25.2 °F 32.4 °F 88% 30.16 in 10.0 mi NNE 18.4 mph 24.2 mph N/A   Overcast
1:15 PM 35.2 °F 25.0 °F 32.9 °F 91% 30.16 in 3.0 mi North 17.3 mph 24.2 mph N/A   Overcast
1:35 PM 36.0 °F 26.3 °F 32.4 °F 87% 30.16 in 10.0 mi NNE 16.1 mph 24.2 mph N/A   Overcast
1:55 PM 36.9 °F 27.1 °F 32.4 °F 84% 30.16 in 10.0 mi North 17.3 mph 24.2 mph N/A   Overcast
2:15 PM 37.2 °F 27.6 °F 32.0 °F 81% 30.16 in 10.0 mi NNE 17.3 mph 21.9 mph N/A   Overcast
2:35 PM 37.4 °F 27.8 °F 32.0 °F 81% 30.16 in 10.0 mi NNE 17.3 mph 24.2 mph N/A   Overcast
2:55 PM 38.3 °F 28.7 °F 32.0 °F 78% 30.16 in 10.0 mi North 18.4 mph 25.3 mph N/A   Overcast
3:15 PM 39.6 °F 30.3 °F 32.0 °F 74% 30.16 in 10.0 mi NNE 18.4 mph 27.6 mph N/A   Overcast
3:35 PM 40.3 °F 31.0 °F 32.2 °F 73% 30.16 in 10.0 mi North 19.6 mph 25.3 mph N/A   Overcast
3:55 PM 41.2 °F 33.0 °F 32.0 °F 70% 30.16 in 10.0 mi North 16.1 mph 24.2 mph N/A   Overcast
4:15 PM 40.8 °F 31.7 °F 31.8 °F 70% 30.17 in 10.0 mi North 19.6 mph 26.5 mph N/A   Overcast
4:35 PM 42.1 °F 33.9 °F 32.0 °F 67% 30.17 in 10.0 mi North 17.3 mph 21.9 mph N/A   Overcast
4:55 PM 42.3 °F 35.5 °F 31.8 °F 67% 30.17 in 10.0 mi NNE 12.7 mph 25.3 mph N/A   Mostly Cloudy
5:15 PM 42.4 °F 35.3 °F 31.3 °F 65% 30.17 in 10.0 mi North 13.8 mph 21.9 mph N/A   Mostly Cloudy
5:35 PM 43.9 °F 37.2 °F 31.3 °F 61% 30.17 in 10.0 mi North 13.8 mph 18.4 mph N/A   Mostly Cloudy
5:55 PM 42.4 °F 36.1 °F 30.7 °F 63% 30.18 in 10.0 mi North 11.5 mph - N/A   Mostly Cloudy
6:15 PM 41.9 °F 34.3 °F 30.6 °F 64% 30.18 in 10.0 mi North 15.0 mph 23.0 mph N/A   Mostly Cloudy
6:35 PM 41.7 °F 35.6 °F 30.6 °F 65% 30.18 in 10.0 mi North 10.4 mph - N/A   Scattered Clouds
6:55 PM 40.5 °F 34.6 °F 30.6 °F 68% 30.19 in 10.0 mi North 9.2 mph - N/A   Clear
7:15 PM 38.1 °F 32.9 °F 30.2 °F 73% 30.19 in 10.0 mi North 6.9 mph - N/A   Clear
7:35 PM 35.6 °F 31.7 °F 29.8 °F 80% 30.19 in 10.0 mi North 4.6 mph - N/A   Clear
7:55 PM 35.1 °F 30.1 °F 29.3 °F 80% 30.19 in 10.0 mi North 5.8 mph - N/A   Clear
8:15 PM 35.6 °F - 29.5 °F 78% 30.19 in 10.0 mi Calm Calm - N/A   Clear
8:35 PM 34.9 °F 32.0 °F 29.3 °F 80% 30.19 in 10.0 mi North 3.5 mph - N/A   Clear
8:55 PM 35.8 °F 33.0 °F 29.8 °F 79% 30.19 in 10.0 mi NE 3.5 mph - N/A   Clear
9:15 PM 35.4 °F 32.6 °F 29.8 °F 80% 30.19 in 10.0 mi ENE 3.5 mph - N/A   Clear
9:35 PM 32.9 °F - 28.2 °F 83% 30.20 in 10.0 mi Calm Calm - N/A   Clear
9:55 PM 29.7 °F 24.7 °F 25.7 °F 85% 30.21 in 10.0 mi West 4.6 mph - N/A   Clear
10:15 PM 30.0 °F 25.2 °F 26.2 °F 86% 30.21 in 10.0 mi West 4.6 mph - N/A   Clear
10:35 PM 28.4 °F 22.2 °F 25.0 °F 87% 30.22 in 10.0 mi West 5.8 mph - N/A   Clear
10:55 PM 28.0 °F 20.8 °F 24.6 °F 87% 30.22 in 10.0 mi SW 6.9 mph - N/A   Clear
11:15 PM 28.2 °F 21.0 °F 25.3 °F 89% 30.22 in 10.0 mi WSW 6.9 mph - N/A   Clear
11:35 PM 29.5 °F 22.5 °F 26.4 °F 88% 30.22 in 10.0 mi WSW 6.9 mph - N/A   Clear
11:55 PM 30.0 °F 22.4 °F 26.6 °F 87% 30.22 in 10.0 mi WSW 8.1 mph - N/A   Clear